IW2HUZ-13 Weather Reports


time (UTC)temp
F
wind
direction
speed
knots
gust
knots
rain 1hr
in
rain 24hr
in
rain mn
in
humidity
%
barometer
mb
20260506230005 39 285 1.7 3.5 0.00 0.73 0.00 99 1005.3
20260506225506 39 286 1.7 3.5 0.00 0.73 0.00 99 1005.2
20260506224505 40 261 1.7 3.5 0.00 0.73 0.00 99 1005.2
20260506224005 39 239 1.7 7.0 0.00 0.73 0.00 99 1005.3
20260506223505 41 237 0.9 7.0 0.00 0.73 0.00 99 1005.2
20260506222505 41 141 1.7 7.8 0.00 0.73 0.00 99 1005.0
20260506220506 39 297 1.7 5.2 0.01 0.73 0.00 99 1005.2
20260506220009 39 309 1.7 3.5 0.01 0.73 0.00 99 1005.3
20260506215506 39 312 1.7 3.5 0.01 0.73 0.73 99 1005.1
20260506215006 39 327 1.7 6.1 0.01 0.73 0.73 99 1004.9
20260506214006 39 325 1.7 3.5 0.01 0.73 0.73 99 1005.0
20260506213005 39 311 1.7 3.5 0.01 0.73 0.73 99 1005.1
20260506212005 39 325 1.7 3.5 0.01 0.74 0.73 99 1005.3
20260506211506 39 15 1.7 3.5 0.01 0.76 0.73 99 1005.1
20260506211006 41 135 0.9 3.5 0.01 0.76 0.73 99 1005.2
20260506210005 41 99 1.7 3.5 0.00 0.74 0.72 99 1004.8
20260506205506 41 110 0.0 6.1 0.00 0.74 0.72 99 1005.0
20260506205006 41 112 0.9 6.1 0.00 0.74 0.72 99 1004.9
20260506204505 40 122 3.5 6.1 0.00 0.74 0.72 99 1004.8
20260506204006 41 136 1.7 6.1 0.00 0.74 0.72 99 1005.1
20260506203505 40 138 1.7 6.1 0.00 0.78 0.72 99 1004.8
20260506203006 40 138 4.3 6.1 0.00 0.79 0.72 99 1005.1
20260506202506 40 124 0.9 6.1 0.00 0.79 0.72 99 1005.0
20260506202006 40 116 2.6 6.1 0.00 0.79 0.72 99 1004.9
20260506201506 39 64 2.6 5.2 0.00 0.79 0.72 99 1004.8
20260506200505 39 53 2.6 3.5 0.00 0.80 0.72 99 1004.9
20260506200006 39 349 1.7 3.5 0.00 0.80 0.72 99 1004.7
20260506195506 39 295 0.9 3.5 0.00 0.80 0.72 99 1004.7
20260506195006 39 285 0.0 3.5 0.01 0.80 0.72 99 1004.7
20260506194506 39 93 1.7 3.5 0.04 0.80 0.72 99 1004.4
20260506194005 39 78 0.0 3.5 0.06 0.80 0.72 99 1004.6
20260506193506 39 307 1.7 3.5 0.07 0.81 0.72 99 1004.2
20260506193005 39 306 0.9 3.5 0.08 0.81 0.72 99 1004.3
20260506192505 39 308 1.7 3.5 0.08 0.81 0.72 99 1004.4
20260506192006 39 327 2.6 3.5 0.08 0.81 0.72 99 1004.2
20260506191505 39 343 0.9 3.5 0.08 0.83 0.72 99 1004.2
20260506191006 39 352 1.7 3.5 0.08 0.83 0.72 99 1004.2
20260506190505 40 358 2.6 3.5 0.08 0.83 0.72 99 1003.9
20260506190006 40 347 1.7 3.5 0.08 0.83 0.72 99 1003.6
20260506185005 40 123 0.9 3.5 0.07 0.81 0.71 99 1004.4
20260506184506 41 181 0.9 3.5 0.06 0.79 0.69 99 1004.5
20260506184006 40 293 0.9 3.5 0.04 0.77 0.66 99 1004.2
20260506183006 40 291 1.7 3.5 0.01 0.74 0.64 99 1004.1
20260506182506 39 299 1.7 3.5 0.01 0.74 0.64 99 1003.8
20260506182006 40 296 1.7 3.5 0.01 0.76 0.64 99 1003.6
20260506181505 40 293 1.7 3.5 0.01 0.77 0.64 99 1003.5
20260506180505 40 289 1.7 3.5 0.02 0.77 0.64 99 1003.4
20260506180006 40 294 1.7 5.2 0.02 0.77 0.64 99 1003.5
20260506175006 39 344 3.5 3.5 0.02 0.78 0.64 99 1003.2
20260506174505 40 331 0.0 5.2 0.01 0.77 0.63 99 1003.4
20260506174006 39 319 1.7 5.2 0.02 0.77 0.63 99 1003.2
20260506173505 40 318 1.7 5.2 0.02 0.77 0.63 99 1003.1
20260506173006 40 319 2.6 5.2 0.02 0.77 0.63 99 1002.9
20260506172506 40 312 2.6 5.2 0.04 0.77 0.63 99 1003.0
20260506172006 40 318 1.7 5.2 0.04 0.77 0.63 99 1003.1
20260506171505 40 321 1.7 5.2 0.04 0.77 0.63 99 1003.2
20260506171006 40 310 3.5 5.2 0.04 0.77 0.63 99 1002.8
20260506170505 40 309 2.6 5.2 0.02 0.77 0.61 99 1003.2
20260506170006 40 311 2.6 5.2 0.02 0.77 0.61 99 1003.1
20260506165505 40 312 2.6 5.2 0.02 0.77 0.61 99 1003.0
20260506165006 40 315 1.7 6.1 0.02 0.77 0.61 99 1002.8
20260506164506 40 310 2.6 6.1 0.02 0.77 0.61 99 1002.9
20260506164006 40 306 3.5 6.1 0.01 0.76 0.60 99 1003.0
20260506163506 40 310 1.7 5.2 0.01 0.76 0.60 99 1003.0
20260506163005 40 311 1.7 5.2 0.01 0.76 0.60 99 1002.9
20260506162506 41 312 2.6 5.2 0.00 0.74 0.59 99 1002.8
20260506161506 41 312 1.7 3.5 0.00 0.74 0.59 99 1002.4
20260506161006 41 303 2.6 3.5 0.00 0.74 0.59 99 1002.4
20260506160506 42 303 1.7 3.5 0.00 0.74 0.59 99 1002.3
20260506160006 42 311 1.7 3.5 0.00 0.74 0.59 99 1002.3
20260506155506 42 306 1.7 3.5 0.00 0.74 0.59 99 1002.1
20260506155006 42 306 1.7 3.5 0.02 0.74 0.59 99 1002.2
20260506154506 42 306 2.6 3.5 0.04 0.74 0.59 99 1002.4
20260506154006 43 306 1.7 3.5 0.05 0.74 0.59 99 1002.3
20260506153006 43 303 1.7 3.5 0.06 0.74 0.59 99 1002.4
20260506152505 43 309 1.7 3.5 0.07 0.74 0.59 99 1002.5
20260506152006 43 316 1.7 3.5 0.07 0.74 0.59 99 1002.5
20260506151005 42 54 1.7 6.1 0.12 0.74 0.59 99 1002.5
20260506150506 42 62 1.7 7.0 0.13 0.74 0.59 99 1002.7
20260506150006 42 44 3.5 7.0 0.13 0.76 0.59 99 1002.8
20260506145005 43 357 1.7 3.5 0.11 0.73 0.57 99 1002.5
20260506144506 42 354 1.7 3.5 0.11 0.72 0.56 99 1002.7
20260506144006 42 7 1.7 3.5 0.09 0.71 0.56 99 1002.9
20260506143506 42 354 0.9 1.7 0.08 0.70 0.53 99 1003.1
20260506143005 42 127 0.0 3.5 0.08 0.70 0.53 99 1002.6
20260506142505 43 7 1.7 3.5 0.07 0.69 0.52 99 1002.9
20260506142006 43 67 1.7 3.5 0.07 0.69 0.52 99 1002.8
20260506141506 45 102 0.9 7.0 0.05 0.66 0.50 99 1003.3
20260506141006 44 91 2.6 9.6 0.02 0.65 0.47 99 1003.1
20260506140511 44 84 3.5 9.6 0.02 0.64 0.46 99 1003.1
20260506140006 45 61 1.7 9.6 0.02 0.64 0.46 99 1002.9
20260506135506 45 61 1.7 9.6 0.04 0.64 0.46 99 1002.7
20260506135005 45 80 2.6 9.6 0.04 0.64 0.46 99 1002.7
20260506134506 45 73 2.6 9.6 0.02 0.63 0.45 99 1002.6
20260506134006 45 67 3.5 7.0 0.02 0.63 0.45 99 1002.7
20260506133506 45 77 1.7 7.0 0.02 0.64 0.45 99 1003.0
20260506132506 45 75 1.7 9.6 0.02 0.64 0.45 99 1002.9
20260506132006 45 84 3.5 11.3 0.02 0.65 0.45 99 1003.1
20260506131506 45 83 4.3 11.3 0.02 0.65 0.45 99 1003.3
20260506131006 45 77 3.5 13.9 0.02 0.65 0.45 99 1002.8
20260506130506 45 82 4.3 17.4 0.01 0.64 0.44 99 1003.0
20260506125505 45 75 7.8 13.0 0.00 0.63 0.43 99 1002.2
20260506125005 45 79 7.0 15.6 0.00 0.63 0.43 99 1002.3
20260506124506 45 80 5.2 15.6 0.01 0.63 0.43 99 1002.1
20260506124005 45 72 5.2 14.8 0.01 0.63 0.43 99 1002.2
20260506123506 45 72 3.5 15.6 0.01 0.63 0.43 99 1002.2
20260506123005 45 79 3.5 15.6 0.01 0.63 0.43 99 1002.6
20260506122506 45 72 4.3 13.0 0.01 0.63 0.43 99 1002.3
20260506122006 45 74 4.3 20.0 0.02 0.64 0.43 99 1002.3
20260506121506 45 86 9.6 20.0 0.02 0.64 0.43 99 1002.5
20260506121005 44 90 8.7 19.1 0.02 0.64 0.43 99 1002.4
20260506120505 44 74 5.2 13.9 0.02 0.64 0.43 99 1002.4
20260506120006 44 66 3.5 20.0 0.02 0.64 0.43 99 1002.6
20260506115506 44 79 4.3 20.0 0.02 0.64 0.43 99 1002.4
20260506115006 44 83 12.2 20.0 0.02 0.64 0.43 99 1002.4
20260506114505 44 82 7.8 18.2 0.01 0.63 0.41 99 1002.5
20260506114005 44 71 3.5 21.7 0.01 0.63 0.41 99 1002.5
20260506113506 44 67 9.6 21.7 0.01 0.63 0.41 99 1002.3
20260506113005 44 79 6.1 20.0 0.01 0.63 0.41 99 1002.4
20260506112506 44 80 4.3 20.0 0.00 0.61 0.40 99 1002.6
20260506111506 44 74 7.0 14.8 0.00 0.61 0.40 99 1002.6
20260506110506 44 77 3.5 20.0 0.00 0.61 0.40 99 1002.5
20260506110005 44 77 5.2 14.8 0.00 0.61 0.40 99 1002.6
20260506105506 44 84 4.3 15.6 0.00 0.61 0.40 99 1002.8
20260506105005 44 88 6.1 15.6 0.00 0.61 0.40 99 1002.9
20260506104506 43 70 2.6 19.1 0.00 0.61 0.40 99 1002.8
20260506104005 43 71 6.1 21.7 0.00 0.61 0.40 99 1002.5
20260506103506 43 95 7.0 21.7 0.00 0.61 0.40 99 1002.5
20260506103007 43 89 9.6 21.7 0.00 0.61 0.40 99 1002.5
20260506102505 43 76 9.6 18.2 0.00 0.61 0.40 99 1002.9
20260506102006 43 73 8.7 18.2 0.00 0.61 0.40 99 1002.7
20260506101505 43 69 6.1 18.2 0.00 0.61 0.40 99 1002.6
20260506101006 43 76 13.9 18.2 0.00 0.61 0.40 99 1002.5
20260506100505 43 83 9.6 14.8 0.00 0.61 0.40 99 1002.5
20260506095506 42 78 3.5 17.4 0.01 0.61 0.40 99 1002.5
20260506095005 42 74 6.1 17.4 0.02 0.61 0.40 99 1002.5
20260506094506 42 79 3.5 20.0 0.04 0.61 0.40 99 1002.6
20260506094005 42 88 7.0 20.0 0.06 0.63 0.40 99 1002.6
20260506093506 42 97 3.5 15.6 0.07 0.63 0.40 99 1002.6
20260506093005 42 97 7.8 15.6 0.07 0.63 0.40 99 1002.2
20260506092506 42 57 3.5 15.6 0.07 0.63 0.40 99 1002.5
20260506092005 42 46 8.7 15.6 0.08 0.63 0.40 99 1002.2
20260506091505 42 45 5.2 20.9 0.08 0.63 0.40 99 1002.3
20260506091005 42 56 7.8 20.9 0.09 0.63 0.40 99 1001.9
20260506090505 42 80 4.3 19.1 0.09 0.64 0.40 99 1001.7
20260506090005 42 76 1.7 19.1 0.09 0.64 0.40 99 1002.4
20260506085005 42 84 7.8 17.4 0.07 0.61 0.38 99 1002.3
20260506084506 42 79 6.1 14.8 0.07 0.60 0.37 99 1002.1
20260506084005 42 61 3.5 13.0 0.05 0.58 0.34 99 1002.7
20260506083506 42 67 5.2 14.8 0.04 0.57 0.33 99 1002.4
20260506083005 42 69 2.6 14.8 0.05 0.58 0.33 99 1002.3
20260506082505 42 72 5.2 11.3 0.05 0.58 0.33 99 1002.5
20260506082005 42 86 3.5 11.3 0.04 0.57 0.32 99 1002.7
20260506081505 42 76 3.5 12.2 0.04 0.57 0.32 99 1002.4
20260506081006 42 59 3.5 19.1 0.02 0.57 0.31 99 1002.4
20260506080505 42 50 1.7 19.1 0.02 0.57 0.31 99 1002.4
20260506073505 42 71 5.2 15.6 0.01 0.56 0.30 99 1002.8
20260506073006 42 62 5.2 13.9 0.00 0.54 0.28 99 1002.6
20260506072006 42 71 5.2 14.8 0.00 0.58 0.28 99 1002.6
20260506071505 42 65 3.5 9.6 0.01 0.59 0.28 99 1002.5
20260506071006 42 72 1.7 13.0 0.01 0.60 0.28 99 1002.7
20260506070505 42 70 1.7 13.0 0.01 0.61 0.28 99 1002.6
20260506062505 41 63 4.3 13.0 0.04 0.67 0.28 99 1002.6
20260506062006 41 63 7.0 12.2 0.04 0.67 0.28 99 1002.5
20260506061506 42 64 7.0 12.2 0.04 0.66 0.27 99 1002.3
20260506061006 42 56 6.1 13.0 0.04 0.66 0.27 99 1002.7
20260506060506 42 54 3.5 13.0 0.04 0.67 0.27 99 1002.7
20260506051006 43 65 3.5 14.8 0.05 0.65 0.24 99 1002.9
20260506045005 43 85 5.2 13.9 0.04 0.64 0.22 99 1003.1
20260506044506 43 73 4.3 13.9 0.02 0.63 0.21 99 1003.1
20260506044006 43 78 6.1 12.2 0.01 0.61 0.20 99 1003.1
20260506043506 43 82 3.5 9.6 0.02 0.61 0.20 99 1003.3
20260506043005 43 79 5.2 13.9 0.06 0.61 0.20 99 1003.3
20260506042506 43 75 3.5 13.9 0.06 0.60 0.19 99 1003.2
20260506042005 44 77 3.5 9.6 0.06 0.60 0.19 99 1003.5
20260506041506 43 83 3.5 9.6 0.06 0.60 0.19 99 1003.1
20260506041005 43 80 4.3 9.6 0.06 0.60 0.19 99 1003.5
20260506040506 43 76 3.5 11.3 0.07 0.60 0.19 99 1003.2
20260506040006 44 75 3.5 11.3 0.08 0.60 0.19 99 1003.6
20260506035505 44 84 2.6 12.2 0.09 0.60 0.19 99 1003.3
20260506035006 44 82 1.7 12.2 0.11 0.60 0.19 99 1003.4
20260506034506 44 85 1.7 11.3 0.11 0.60 0.19 99 1003.4
20260506034005 44 95 2.6 11.3 0.11 0.60 0.19 99 1003.4
20260506033506 44 91 7.0 11.3 0.09 0.59 0.18 99 1003.3
20260506033006 44 90 4.3 11.3 0.06 0.56 0.14 99 1003.5
20260506032505 44 89 3.5 11.3 0.05 0.54 0.13 99 1003.5
20260506032005 44 85 1.7 9.6 0.05 0.54 0.13 99 1003.5
20260506031505 44 85 3.5 12.2 0.05 0.54 0.13 99 1003.6
20260506031006 44 90 2.6 12.2 0.05 0.54 0.13 99 1003.7
20260506030505 44 87 3.5 11.3 0.05 0.53 0.12 99 1003.7
20260506030005 44 89 3.5 7.0 0.04 0.52 0.11 99 1003.9
20260506025506 44 91 3.5 11.3 0.02 0.51 0.09 99 1003.7
20260506025006 44 87 1.7 11.3 0.01 0.50 0.08 99 1004.2
20260506024505 44 82 3.5 11.3 0.01 0.50 0.08 99 1004.1
20260506024006 44 77 5.2 9.6 0.01 0.50 0.08 99 1004.0
20260506023505 44 84 2.6 9.6 0.01 0.50 0.08 99 1004.1
20260506023006 44 90 2.6 7.0 0.01 0.50 0.08 99 1004.0
20260506022505 44 77 3.5 13.9 0.01 0.50 0.08 99 1004.3
20260506022005 44 73 3.5 13.9 0.01 0.50 0.08 99 1004.4
20260506021506 44 88 3.5 11.3 0.01 0.50 0.08 99 1004.3
20260506021005 44 91 2.6 9.6 0.01 0.50 0.08 99 1004.3
20260506020506 44 67 3.5 9.6 0.00 0.48 0.07 99 1004.4
20260506020005 44 65 2.6 9.6 0.00 0.48 0.07 99 1004.5
20260506015506 44 76 2.6 7.0 0.00 0.48 0.07 99 1004.2
20260506015006 44 88 3.5 7.0 0.00 0.48 0.07 99 1004.4
20260506014505 44 90 1.7 7.0 0.00 0.48 0.07 99 1004.5
20260506014006 44 94 3.5 5.2 0.00 0.48 0.07 99 1004.5
20260506013506 44 75 1.7 7.0 0.00 0.48 0.07 99 1004.5
20260506013005 44 61 0.9 7.0 0.00 0.48 0.07 99 1004.5
20260506012506 44 71 2.6 9.6 0.00 0.48 0.07 99 1004.6
20260506012005 44 77 2.6 9.6 0.00 0.48 0.07 99 1004.7
20260506011505 44 74 3.5 9.6 0.00 0.48 0.07 99 1004.8
20260506011006 44 79 1.7 7.0 0.00 0.48 0.07 99 1004.7
20260506010505 44 85 2.6 7.0 0.01 0.48 0.07 99 1004.8
20260506010006 44 84 3.5 7.0 0.01 0.48 0.07 99 1004.8
20260506005505 44 81 1.7 7.0 0.04 0.48 0.07 99 1004.9
20260506005006 44 80 1.7 7.8 0.04 0.48 0.07 99 1005.1
20260506003505 44 82 3.5 9.6 0.07 0.48 0.07 99 1005.2
20260506003005 44 80 3.5 7.0 0.07 0.48 0.07 99 1005.1
20260506002506 44 83 1.7 7.0 0.07 0.48 0.07 99 1005.1
20260506001506 44 86 3.5 7.8 0.07 0.48 0.07 99 1005.2
20260506001005 44 77 3.5 7.8 0.07 0.48 0.07 99 1005.1
20260506000505 44 77 1.7 3.5 0.06 0.47 0.06 99 1005.3
20260505235505 44 84 1.7 7.0 0.04 0.45 0.04 99 1005.5
20260505235005 44 86 1.7 5.2 0.04 0.45 0.04 99 1005.5
20260505234506 44 87 1.7 5.2 0.02 0.44 0.02 99 1005.6
20260505234006 44 82 1.7 5.2 0.00 0.41 0.00 99 1005.6
20260505233505 44 85 1.7 5.2 0.00 0.41 0.00 99 1005.6
20260505233005 44 90 1.7 5.2 0.00 0.41 0.00 99 1005.5
20260505232506 44 83 1.7 5.2 0.00 0.41 0.00 99 1005.7
20260505231506 44 94 1.7 5.2 0.00 0.41 0.00 99 1005.8
20260505231005 44 91 1.7 3.5 0.00 0.41 0.00 99 1006.0